sat.trackr.live / text

‹ back to catalog

KUIPER-00122

NORAD 65951 · 2025-228E

PAYLOAD ACTIVE UNKNOWN

§ Identity

Operator
Country
US
Launch date
2025-10-14
Launch site
AFETR
Launch vehicle
Mass (kg)
RCS (m²)

External: N2YO · Heavens-Above · Gunter

§ Orbital elements

Epoch: 2026-09-20T13:11:58.279776Z

Period
97.30 min
Inclination
51.8960°
Eccentricity
0.0000898
Mean motion
14.79928482 rev/d
Perigee alt
628.9 km
Apogee alt
630.2 km
Semi-major
7,007.7 km
B*
9.5311e-5
RAAN
221.3788°
Arg perigee
71.5360°
Mean anomaly
288.5700°
Rev number
5,205

§ Raw data

KUIPER-001221 65951U 25228E   26263.54998009  .00000505  00000+0  95311-4 0  99902 65951  51.8960 221.3788 0000898  71.5360 288.5700 14.79928482 52051

JSON: /api/v1/satellites/65951 · /tle

For live sub-satellite position, see the globe view (requires WebGL).

§ Visibility from observer

Set your observer location to see the next 7 days of passes ≥ 10°. The values pass through the URL so the page stays shareable.

No JS? Fill the form by hand. The geolocation button needs JavaScript.